Accueil
METAR-TAF:

METAR-TAF

Aéroports :

Red Dog Mine, Alaska, États-Unis

latitude: 68-01-56N, longitude: 162-53-57W, altitude: 295 m

Observation

Le bulletin a été fait il y a 33 minutes, à 22:04 UTC
Vent 6 kt de nord/nord-est
Température -20°C
Humidité 84%
Pression 1003 hPa
Visibilité: 12.9 km
Nuages épars à une hauteur de 1600 ft
Nuages fragmentés à une hauteur de 5000 ft
neige faible

METAR: PADG 222204Z 03006KT 8SM -SN SCT016 BKN050 M20/M22 A2963

Heure: 13:37 (22:37 UTC)


TAF: absent

Observations et prévisions météorologiques de plus de 4000 aéroports (messages METAR et TAF).

Les stations disponibles sont représentées par des disques jaunes et rouges sur la carte.

Passer la souris dessus pour voir le nom de la station.

Cliquer dessus pour voir les observations et prévisions météorologiques.

Pour changer de carte: cliquez sur les boutons verts avec une croix noire pour zoomer, sur le bouton vert avec un tiret pour effectuer un zoom arrière, ou sur les flèches vertes pour les cartes adjacentes.


METAR-TAF: